Regional Weather Roundup
Issued by NWS

Home | Current Version | Previous Version | Graphics & Text | Print | Product List | Glossary On
Versions: 1 2 3 4 5 6 7 8 9 10 11 12 13 14 15 16 17 18 19 20 21 22 23 24 25 26 27 28 29 30 31 32 33 34 35 36 37 38 39 40 41 42 43 44 45 46 47 48 49 50
000
ASUS43 KMKX 202259
RWRWI

WISCONSIN REGIONAL WEATHER ROUNDUP
NATIONAL WEATHER SERVICE MILWAUKEE/SULLIVAN WI
500 PM CST SAT JAN 20 2018

NOTE: "FAIR" INDICATES FEW OR NO CLOUDS BELOW 12,000 FEET WITH NO
SIGNIFICANT WEATHER AND/OR OBSTRUCTIONS TO VISIBILITY.

WIZ001-002-006>008-014>016-023>028-210000-
NORTHWEST WISCONSIN

CITY           SKY/WX    TMP DP  RH WIND       PRES   REMARKS
SUPERIOR ARPT  FAIR      40  29  66 W5        29.86R
ASHLAND        FAIR      38  29  70 W5        29.87R WCI  34
HAYWARD        FAIR      35  27  72 S6        29.87R WCI  30
SIREN          FAIR      37  30  77 SW5       29.89R WCI  33
CUMBERLAND     CLOUDY    36  30  80 W3        29.88R
RICE LAKE      CLOUDY    38  32  78 CALM      29.91R
CHETEK         CLOUDY    36  30  80 CALM      29.90R
LADYSMITH      CLOUDY    38  32  77 S5        29.89R WCI  35
EAU CLAIRE     NOT AVBL
MENOMONIE      MOCLDY    37  32  79 CALM      29.90R
NEW RICHMOND   CLOUDY    37  30  77 CALM      29.90R
OSCEOLA        CLOUDY    38  31  76 CALM      29.93R
$$

WIZ003>005-009-010-017-018-210000-
NORTH CENTRAL WISCONSIN

CITY           SKY/WX    TMP DP  RH WIND       PRES   REMARKS
MANITOWISH WTR FAIR      32  32 100 S3        29.85S
ARBOR VITAE    MOCLDY    37  32  84 CALM      29.86R
WOODRUFF       MOCLDY    37  32  84 CALM      29.86R
RHINELANDER    CLOUDY    36  31  82 CALM      29.87R
EAGLE RIVER    FAIR      32  32  99 CALM      29.86R
LAND O LAKES   MOCLDY    35  31  87 CALM      29.88R
PHILLIPS       CLOUDY    36  31  84 SW5       29.87R WCI  32
TOMAHAWK       CLOUDY    34  30  85 CALM      29.88R
MEDFORD        CLOUDY    35  30  81 S3        29.88R
MERRILL        CLOUDY    38  32  79 CALM      29.89R
$$

WIZ029-030-035-036-043>047-210000-
CENTRAL WISCONSIN

CITY           SKY/WX    TMP DP  RH WIND       PRES   REMARKS
WAUSAU         MOCLDY    38  30  73 CALM      29.88R
MOSINEE        CLOUDY    37  30  75 S5        29.90R WCI  34
MARSHFIELD     MOCLDY    37  30  75 CALM      29.88R
STEVENS POINT  FAIR      36  30  78 CALM      29.91R
WAUPACA        FAIR      41  32  68 CALM      29.91S
WAUTOMA        FAIR      38  31  76 CALM      29.92S
WISC RAPIDS    FAIR      37  28  70 CALM      29.92R
CAMP DOUGLAS   PTCLDY    36  30  80 E3        29.89S
$$

WIZ011>013-019>022-031-037>040-048>050-210000-
NORTHEAST WISCONSIN

CITY           SKY/WX    TMP DP  RH WIND       PRES   REMARKS
ANTIGO         CLOUDY    32  30  92 CALM      29.88R
SHAWANO        FAIR      42  31  63 CALM      29.91R
OCONTO         MOCLDY    38  29  71 S3        29.91R
STURGEON BAY   CLOUDY    38  29  70 CALM      29.93R
GREEN BAY      FAIR      38  30  73 S3        29.92S
MANITOWOC      FAIR      37  31  78 S7        29.93F WCI  32
APPLETON       MOCLDY    39  28  65 CALM      29.90R
CLINTONVILLE   FAIR      37  30  75 S3        29.91R
OSHKOSH        FAIR      37  30  75 CALM      29.92R
$$

WIZ032>034-041-042-053>061-210000-
SOUTHWEST WISCONSIN

CITY           SKY/WX    TMP DP  RH WIND       PRES   REMARKS
LA CROSSE      FAIR      35  30  82 NW3       29.91R
SPARTA         FAIR      41  32  71 CALM      29.90S
VIROQUA        FAIR      41  34  74 CALM      29.89S
BOSCOBEL       FAIR      44  32  62 NE3       29.91R
PRAIRIE DU CHI FAIR      46  32  58 E6        29.89R
PLATTEVILLE    FAIR      43  35  74 SE3       29.90R
$$

WIZ056-057-062-063-064-067-068-210000-
SOUTH CENTRAL WISCONSIN

CITY           SKY/WX    TMP DP  RH WIND       PRES   REMARKS
REEDSBURG      FAIR      44  32  61 CALM      29.90R
BARABOO/DELLS  FAIR      43  32  63 NE3       29.90R
LONE ROCK      NOT AVBL
MINERAL POINT  FAIR      45  36  70 S3        29.90R
MADISON        MOCLDY    42  32  67 S6        29.92R
MIDDLETON      FAIR      45  32  60 S5        29.91R
WATERTOWN      FAIR      42  32  67 CALM      29.91S
MONROE         FAIR      37  32  81 S3        29.91S
JANESVILLE     PTCLDY    41  32  70 VRB5      29.93R
$$

WIZ051-052-058>065-066-070>072-210000-
SOUTHEAST WISCONSIN

CITY           SKY/WX    TMP DP  RH WIND       PRES   REMARKS
MILWAUKEE      FAIR      39  31  72 E3        29.94R
WAUKESHA       CLEAR     45  30  57 CALM      29.93R
MILWAUKEE/TIMM CLEAR     43  27  52 CALM      29.95R
RACINE         FAIR      43  32  65 SW5       29.95R
BURLINGTON     FAIR      40  31  68 CALM      29.94R
KENOSHA        FAIR      41  30  65 SW6       29.94R
FOND DU LAC    FAIR      39  28  64 CALM      29.92R
SHEBOYGAN      FAIR      37  31  78 S5        29.93R WCI  33
WEST BEND      FAIR      41  30  65 SE7       29.93R
JUNEAU         FAIR      41  32  71 CALM      29.92S
$$

LSZ147-162-210000-
LAKE SUPERIOR

STATION/POSITION TIME  TEMP    WIND        PRES    WAVE
                       AIR SEA DIR/SP/G            HT/PER
                 (UTC) (F)     (DEG/KT/KT) (MB)    (FT/S)
DEVILS ISLAND    2200   38     190/  6/  7 1010.8R
SAXON HARBOR     2240   36     200/  1/  2 1010.8R
$$

LMZ867-665-643>646-210000-
LAKE MICHIGAN

STATION/POSITION TIME  TEMP    WIND        PRES    WAVE
                       AIR SEA DIR/SP/G            HT/PER
                 (UTC) (F)     (DEG/KT/KT) (MB)    (FT/S)
NORTHPORT PIER   2240   37        CALM     1012.9S
KEWAUNEE LAKESHO 2230   35     200/  2/  3 1012.6F
SHEBOYGAN LAKESH 2200   39     180/  6/  6 1013.7R
PORT WASHINGTON  2240   37      CALM  /  1 1014.9R
MILWAUKEE LAKESH 2230   35      40/  2/  2   N/A
KENOSHA   LAKESH 2200   46     250/  8/  9 1013.9
$$

TC  - TEMPERATURE IN CELSIUS
VSB - VISIBILITY IN STATUTE MILES
WCI - WIND CHILL INDEX
HX  - HEAT INDEX





USA.gov is the U.S. government's official web portal to all federal, state and local government web resources and services.